Weather Service Report


971 
ASUS45 KSLC 291310
RWRUT 

UTAH REGIONAL WEATHER ROUNDUP
NATIONAL WEATHER SERVICE SALT LAKE CITY UT
700 AM MDT SUN MAY 29 2016

UTZ001>011-023>025-291400-

NORTHERN UTAH
  
CITY           SKY/WX    TMP DP  RH WIND       PRES   REMARKS
BRIGHAM CITY     N/A     48  40  72 CALM      30.10R                  
HILL AFB       PTCLDY    51  37  58 SE16      30.10R                  
LOGAN          CLEAR     43  41  93 CALM      30.13R                  
OGDEN          MOCLDY    53  39  59 S6        30.09R                  
PROVO AIRPORT  PTCLDY    50  39  66 CALM      30.11S                  
SALT LAKE CITY MOCLDY    60  43  53 SE8       30.08R                  
VERNAL         SUNNY     49  38  65 W3        30.18R                  
WENDOVER       PTCLDY    55  39  54 W3        30.08R                  
HEBER CITY     CLEAR     41  37  87 CALM      30.17R                  
WEST JORDAN    CLEAR     52  43  71 CALM      30.10R                  

$$

UTZ012>022-026-027-291400-

SOUTHERN/CENTRAL UTAH
  
CITY           SKY/WX    TMP DP  RH WIND       PRES   REMARKS
BLANDING       SUNNY     57  31  37 NE9       30.21R                  
BRYCE CANYON   PTCLDY    37  31  78 W7        30.25R WCI  32          
CEDAR CITY     CLEAR     49  36  61 S5        30.11R                  
DELTA          PTCLDY    46  39  76 N3        30.10R                  
HANKSVILLE     PTCLDY    48  34  57 CALM      30.13R                  
MILFORD        PTCLDY    47  36  65 CALM      30.10R                  
MOAB/CYNLANDS  SUNNY     56  34  43 CALM      30.10R                  
PRICE          PTCLDY    48  34  58 NE6       30.17R                  
ST GEORGE      SUNNY     63  30  29 SE8       29.99R                  
KANAB          CLEAR     55  36  47 N9        30.11R                  

$$

REGIONAL REPORTS     COLORADO/ARIZONA
  
CITY           SKY/WX    TMP DP  RH WIND       PRES   REMARKS
CRAIG, CO      SUNNY     40  37  89 CALM      30.22S                  
GRAND JUNCTION SUNNY     54  36  50 SE8       30.15R                  
RIFLE          SUNNY     43  35  73 CALM      30.22R                  
MONTROSE       CLOUDY    48  34  58 SE5       30.22R                  
CORTEZ         SUNNY     43  32  65 CALM      30.17R                  
PAGE, AZ       NOT AVBL                                               
GRAND CANYON   CLEAR     34  23  64 CALM      30.18R                  
KINGMAN        CLEAR     59  29  31 SE8       30.00R                  
FLAGSTAFF      CLEAR     34  21  59 CALM      30.21R                  

$$

REGIONAL REPORTS    NEVADA/IDAHO/WYOMING
  
CITY           SKY/WX    TMP DP  RH WIND       PRES   REMARKS
LAS VEGAS, NV  PTCLDY    72  26  18 S3        29.87R                  
ELY            CLEAR     38  35  89 S6        30.17R WCI  33          
ELKO           PTCLDY    48  41  76 E7        30.11R                  
POCATELLO, ID  PTCLDY    40  35  83 CALM      30.12R                  
BURLEY         CLEAR     44  40  85 CALM      30.09R                  
EVANSTON, WY   CLOUDY    45  32  60 SE5       30.22R                  
ROCK SPRINGS   SUNNY     44  36  73 CALM      30.23R                  
KEMMERER         N/A     37  32  81 N8        30.24R WCI  31          

$$
  

Return to Home page


Western Regional Climate Center, wrcc@dri.edu